TimeAKDT,TemperatureF,Dew PointF,Humidity,Sea Level PressureIn,VisibilityMPH,Wind Direction,Wind SpeedMPH,Gust SpeedMPH,PrecipitationIn,Events,Conditions,WindDirDegrees,DateUTC
12:53 AM,-9.0,-13.0,83,30.13,9.0,WSW,17.3,-,N/A,,Overcast,240,2013-03-28 08:53:00
1:36 AM,-9.4,-13.0,84,30.13,2.5,SW,17.3,-,0.00,,Overcast,230,2013-03-28 09:36:00
1:44 AM,-9.4,-13.0,84,30.13,4.0,SW,16.1,-,0.00,,Overcast,230,2013-03-28 09:44:00
1:53 AM,-9.0,-13.0,83,30.13,4.0,SW,16.1,-,0.00,,Overcast,230,2013-03-28 09:53:00
2:53 AM,-9.9,-14.1,82,30.13,4.0,SW,16.1,-,N/A,,Overcast,230,2013-03-28 10:53:00
3:11 AM,-11.2,-14.8,84,30.13,4.0,SW,16.1,-,N/A,,Overcast,230,2013-03-28 11:11:00
3:37 AM,-13.0,-16.6,84,30.13,10.0,SW,15.0,-,N/A,,Overcast,220,2013-03-28 11:37:00
3:53 AM,-14.1,-17.0,87,30.14,10.0,SW,13.8,-,N/A,,Scattered Clouds,220,2013-03-28 11:53:00
4:49 AM,-14.8,-18.4,84,30.12,10.0,SW,15.0,-,N/A,,Mostly Cloudy,220,2013-03-28 12:49:00
4:53 AM,-15.0,-18.9,82,30.13,10.0,SW,15.0,-,N/A,,Mostly Cloudy,220,2013-03-28 12:53:00
5:48 AM,-14.8,-18.4,84,30.13,10.0,SW,15.0,-,N/A,,Overcast,220,2013-03-28 13:48:00
5:53 AM,-14.1,-18.0,82,30.13,10.0,SW,15.0,-,N/A,,Overcast,220,2013-03-28 13:53:00
6:53 AM,-11.9,-17.0,78,30.13,4.0,SW,17.3,-,N/A,,Haze,230,2013-03-28 14:53:00
7:28 AM,-11.2,-16.6,77,30.13,2.5,SW,16.1,-,N/A,,Overcast,230,2013-03-28 15:28:00
7:53 AM,-11.9,-16.1,82,30.13,3.0,SW,15.0,-,N/A,,Overcast,230,2013-03-28 15:53:00
8:53 AM,-13.0,-16.1,86,30.13,3.0,SW,15.0,-,N/A,,Overcast,230,2013-03-28 16:53:00
9:25 AM,-13.0,-16.6,84,30.13,5.0,SW,11.5,-,N/A,,Overcast,220,2013-03-28 17:25:00
9:53 AM,-13.0,-17.0,82,30.14,5.0,SSW,11.5,-,N/A,,Overcast,210,2013-03-28 17:53:00
10:17 AM,-13.0,-16.6,84,30.13,9.0,SSW,10.4,-,N/A,,Scattered Clouds,210,2013-03-28 18:17:00
10:53 AM,-13.0,-16.1,86,30.14,10.0,SSW,10.4,-,N/A,,Clear,210,2013-03-28 18:53:00
11:53 AM,-11.9,-16.1,82,30.16,10.0,SW,9.2,-,N/A,,Clear,220,2013-03-28 19:53:00
12:53 PM,-11.0,-15.0,83,30.16,10.0,SW,13.8,-,N/A,,Clear,230,2013-03-28 20:53:00
1:53 PM,-9.9,-15.0,78,30.16,10.0,SW,12.7,-,N/A,,Clear,230,2013-03-28 21:53:00
2:53 PM,-9.9,-14.1,82,30.16,10.0,SW,12.7,-,N/A,,Clear,220,2013-03-28 22:53:00
3:53 PM,-9.0,-13.0,83,30.16,10.0,SW,9.2,-,N/A,,Clear,220,2013-03-28 23:53:00
4:53 PM,-9.0,-13.0,83,30.16,10.0,WSW,6.9,-,N/A,,Clear,240,2013-03-29 00:53:00
5:53 PM,-9.9,-14.1,82,30.15,10.0,SSW,5.8,-,N/A,,Clear,210,2013-03-29 01:53:00
6:53 PM,-11.9,-16.1,82,30.15,10.0,North,-9999.0,-,N/A,,Clear,0,2013-03-29 02:53:00
7:53 PM,-15.0,-18.0,86,30.15,10.0,SSW,5.8,-,N/A,,Clear,200,2013-03-29 03:53:00
8:53 PM,-17.0,-20.0,86,30.16,10.0,Calm,Calm,-,N/A,,Clear,0,2013-03-29 04:53:00
9:53 PM,-18.9,-20.9,91,30.16,10.0,South,3.5,-,N/A,,Clear,190,2013-03-29 05:53:00
10:53 PM,-20.9,-25.1,81,30.16,10.0,South,3.5,-,N/A,,Clear,180,2013-03-29 06:53:00
11:53 PM,-20.9,-24.0,86,30.17,10.0,Calm,Calm,-,N/A,,Clear,0,2013-03-29 07:53:00